[Iaude] MPEC B121: 2024 AP7 [a=1.82,e=0.68,i=24.7,H=19.7]

mpec at marsden.cfa.harvard.edu mpec at marsden.cfa.harvard.edu
Wed Jan 24 01:04:27 EST 2024


M.P.E.C. 2024-B121                             Issued 2024 January 24, 06:02 UT

     The Minor Planet Electronic Circulars contain information on unusual
         minor planets, routine data on comets and natural satellites,
         and occasional editorial announcements.  They are published
    on behalf of Division F of the International Astronomical Union by the
          Minor Planet Center, Smithsonian Astrophysical Observatory,
                          Cambridge, MA 02138, U.S.A.
			  
             Prepared using the Tamkin Foundation Computer Network

                              MPC at CFA.HARVARD.EDU
            URL https://www.minorplanetcenter.net/    ISSN 1523-6714

                                    2024 AP7                                    


Observations:
     K24A07P* S2024 01 15.11225 14 43 19.65 +35 01 43.7          18   RLEB121C51
     K24A07P  s2024 01 15.11225 1 - 3498.8267 - 4916.8885 + 3113.8738   EB121C51
     K24A07P  S2024 01 15.24125 14 44 14.00 +34 55 36.7                LEB121C51
     K24A07P  s2024 01 15.24125 1 - 3484.0615 - 4921.9053 + 3122.4315   EB121C51
     K24A07P  S2024 01 15.43480 14 45 35.76 +34 46 20.8                LEB121C51
     K24A07P  s2024 01 15.43480 1 - 3478.1355 - 4941.8138 + 3097.5649   EB121C51
     K24A07P  S2024 01 15.49923 14 46 03.02 +34 43 13.8                LEB121C51
     K24A07P  s2024 01 15.49923 1 - 3454.9641 - 4932.1481 + 3138.4597   EB121C51
     K24A07P  S2024 01 15.49936 14 46 03.06 +34 43 13.8                LEB121C51
     K24A07P  s2024 01 15.49936 1 - 3486.7526 - 4956.5527 + 3064.2669   EB121C51
     K24A07P  S2024 01 15.56328 14 46 30.12 +34 40 06.3                LEB121C51
     K24A07P  s2024 01 15.56328 1 - 3332.3808 - 4843.1233 + 3397.9064   EB121C51
     K24A07P FC2024 01 19.07646715 12 03.929+31 26 57.44         20.7 GVEB121J95
     K24A07P FC2024 01 19.10546715 12 16.841+31 25 11.89         20.6 GVEB121J95
     K24A07P 7C2024 01 22.23359615 36 10.249+27 52 32.31         20.3 GVEB121Z84
     K24A07P 7C2024 01 22.23632115 36 11.420+27 52 20.34               VEB121Z84
     K24A07P 7C2024 01 22.23902515 36 12.647+27 52 07.84         20.50GVEB121Z84
     K24A07P 1C2024 01 23.21688 15 43 52.61 +26 36 59.5          20.9 VXEB121033
     K24A07P 1C2024 01 23.21782 15 43 53.04 +26 36 55.4          21.0 VXEB121033
     K24A07P 1C2024 01 23.21900 15 43 53.61 +26 36 49.5          20.9 VXEB121033
     K24A07P 1C2024 01 23.22147 15 43 54.75 +26 36 38.1          21.0 VXEB121033

Observer details:
033 Karl Schwarzschild Observatory, Tautenburg.  Observers S. Melnikov, C.
    Hogner, F. Ludwig, M. Hartmann, B. Stecklum.  Measurer B. Stecklum.
    1.34-m f/3 Schmidt + CCD.
C51 WISE.  Observer Near-Earth Object Wide-field Infrared Survey Explorer.
    Measurers A. K. Mainzer, J. M. Bauer, T. Grav, J. R. Masiero, R. M. Cutri,
    J. W. Dailey, Y. G. Kwon, J. Pittichova, E. L. Wright.
J95 Great Shefford.  Observer P. Birtwhistle.  0.41-m f/6.3 Schmidt-Cassegrain
    + CCD.
Z84 Calar Alto-Schmidt.  Observers F. Ocana, R. Kresken, M. Micheli, L.
    Conversi.  Measurers F. Ocana, M. Micheli.  0.8-m f/3 Schmidt + CCD.

Orbital elements:
2024 AP7                                                 Earth MOID = 0.2274 AU
Epoch 2023 Sept. 13.0 TT = JDT 2460200.5                Bell                    
M 287.20539              (2000.0)            P               Q                  
n   0.40273992     Peri.  228.57159     -0.66968553     +0.74262833             
a   1.8160157      Node   359.32284     -0.49274874     -0.44931267             
e   0.6753981      Incl.   24.73893     -0.55562574     -0.49660980             
P   2.45           H   19.77          G   0.15           U   9                  
Residuals in seconds of arc
240115 C51  0.1-  0.3-    240115 C51  0.4-  0.1+    240122 Z84  0.7-  0.3-
240115 C51  0.1+  0.5-    240119 J95  0.1+  0.0     240123 033  0.1+  0.1-
240115 C51  0.2+  0.1+    240119 J95  0.6-  0.4+    240123 033  0.0   0.2+
240115 C51  0.1+  0.1+    240122 Z84  0.6+  0.0     240123 033  0.3+  0.1-
240115 C51  0.1-  0.3+    240122 Z84  0.5-  0.1+    240123 033  0.1+  0.1+

Ephemeris:
2024 AP7                 a,e,i = 1.82, 0.68, 25                  q = 0.5895
Date    TT    R. A. (2000) Decl.     Delta      r    Elong.  Phase     V
2023 12 25    12 40 44.1 +43 28 29   0.7366  1.3350   100.8    46.4    21.5
...
2024 01 09    14 02 42.7 +38 55 44   0.5434  1.1685    95.5    56.9    20.8
...
2024 01 17    14 56 46.5 +33 26 39   0.4575  1.0765    88.8    66.0    20.6
...
2024 01 23    15 42 09.3 +26 54 13   0.4063  1.0066    81.3    75.1    20.5
2024 01 24    15 50 04.0 +25 34 06   0.3992  0.9949    79.9    76.9    20.4
2024 01 25    15 58 03.8 +24 09 34   0.3927  0.9832    78.3    78.7    20.4
...
2024 01 31    16 47 22.3 +14 15 40   0.3656  0.9132    68.0    90.2    20.6
...
2024 02 08    17 54 03.7 -01 08 44   0.3698  0.8219    53.5   105.3    21.1
...
2024 02 23    19 48 27.5 -22 40 40   0.5106  0.6712    38.7   112.9    21.8

M. P. C. Staff               (C) Copyright 2024 MPC           M.P.E.C. 2024-B121





More information about the Iaude mailing list